When you browse on this site, cookies collect data to enhance your experience and personalize the content and advertising you see.
Visit our Privacy Policy to learn more. By continuing to use the site, you agree to this use of cookies and data.
  • In Lithuania
  • List of Countries
  • For 7 days
  • Water Temperature
  • Satellite Maps
  • Weather Map
  • Weather Widgets
  • user-avatar
    Login

    Hourly Weather Novaya Kugulta

    Today, 23 February, Saturday

    Time Temperature Precipitation Wind Pressure Humidity
    00:00 +4°C° 0.1 mm 2 mps 755 mmHg 80%
    01:00 +4°C° 0.1 mm 2 mps 755 mmHg 80%
    02:00 +4°C° 0.1 mm 2 mps 755 mmHg 80%
    03:00 +4°C° 0.1 mm 2 mps 756 mmHg 80%
    04:00 +4°C° 0.1 mm 2 mps 756 mmHg 80%
    05:00 +3°C° 0.1 mm 2 mps 756 mmHg 79%
    06:00 +3°C° 0.1 mm 2 mps 756 mmHg 79%
    07:00 +3°C° 0 mm 3 mps 757 mmHg 77%
    08:00 +3°C° 0 mm 3 mps 757 mmHg 74%
    09:00 +4°C° 0 mm 4 mps 757 mmHg 71%
    10:00 +5°C° 0 mm 4 mps 758 mmHg 68%
    11:00 +6°C° 0 mm 4 mps 758 mmHg 65%
    12:00 +7°C° 0 mm 4 mps 758 mmHg 61%
    13:00 +8°C° 0 mm 3 mps 758 mmHg 62%
    14:00 +8°C° 0 mm 3 mps 758 mmHg 62%
    15:00 +9°C° 0 mm 2 mps 758 mmHg 62%
    16:00 +8°C° 0.1 mm 2 mps 758 mmHg 67%
    17:00 +7°C° 0.1 mm 2 mps 759 mmHg 71%
    18:00 +7°C° 0.1 mm 2 mps 759 mmHg 76%
    19:00 +6°C° 0.1 mm 2 mps 759 mmHg 78%
    20:00 +6°C° 0.1 mm 2 mps 760 mmHg 81%
    21:00 +5°C° 0.1 mm 2 mps 760 mmHg 83%
    22:00 +5°C° 0 mm 2 mps 760 mmHg 84%
    23:00 +3°C° 0 mm 3 mps 760 mmHg 85%

    Tomorrow, 24 February, Sunday

    Time Temperature Precipitation Wind Pressure Humidity
    00:00 +2°C° 0 mm 3 mps 760 mmHg 85%
    01:00 +2°C° 0 mm 3 mps 760 mmHg 86%
    02:00 +1°C° 0 mm 3 mps 761 mmHg 87%
    03:00 +1°C° 0 mm 3 mps 761 mmHg 88%
    04:00 0°C° 0 mm 3 mps 761 mmHg 89%
    05:00 0°C° 0 mm 3 mps 761 mmHg 89%
    06:00 -1°C° 0 mm 2 mps 761 mmHg 90%
    07:00 -1°C° 0 mm 3 mps 761 mmHg 89%
    08:00 0°C° 0 mm 3 mps 761 mmHg 88%
    09:00 0°C° 0 mm 3 mps 762 mmHg 87%
    10:00 0°C° 0.1 mm 3 mps 762 mmHg 85%
    11:00 0°C° 0.1 mm 3 mps 762 mmHg 83%
    12:00 +1°C° 0.1 mm 3 mps 762 mmHg 81%
    13:00 +1°C° 0.2 mm 3 mps 762 mmHg 80%
    14:00 +1°C° 0.2 mm 3 mps 762 mmHg 79%
    15:00 +1°C° 0.2 mm 3 mps 762 mmHg 78%
    16:00 +1°C° 0 mm 3 mps 762 mmHg 79%
    17:00 0°C° 0 mm 3 mps 762 mmHg 80%
    18:00 0°C° 0 mm 3 mps 763 mmHg 81%
    19:00 0°C° 0 mm 3 mps 763 mmHg 82%
    20:00 -1°C° 0 mm 3 mps 763 mmHg 84%
    21:00 -1°C° 0 mm 3 mps 763 mmHg 85%
    22:00 -2°C° 0 mm 3 mps 763 mmHg 85%
    23:00 -2°C° 0 mm 3 mps 763 mmHg 84%

    Day after tomorrow, 25 February, Monday

    Time Temperature Precipitation Wind Pressure Humidity
    00:00 -4°C° 0 mm 3 mps 763 mmHg 83%
    01:00 -4°C° 0 mm 3 mps 763 mmHg 82%
    02:00 -4°C° 0 mm 3 mps 763 mmHg 81%
    03:00 -5°C° 0 mm 3 mps 763 mmHg 80%
    04:00 -5°C° 0 mm 3 mps 763 mmHg 80%
    05:00 -5°C° 0 mm 3 mps 763 mmHg 80%
    06:00 -5°C° 0 mm 3 mps 762 mmHg 79%
    07:00 -5°C° 0 mm 3 mps 763 mmHg 74%
    08:00 -4°C° 0 mm 4 mps 763 mmHg 69%
    09:00 -4°C° 0 mm 4 mps 763 mmHg 63%
    10:00 -2°C° 0 mm 5 mps 762 mmHg 56%
    11:00 -1°C° 0 mm 5 mps 761 mmHg 49%
    12:00 -1°C° 0 mm 6 mps 761 mmHg 41%
    13:00 +1°C° 0 mm 6 mps 760 mmHg 44%
    14:00 +1°C° 0 mm 6 mps 759 mmHg 47%
    15:00 +2°C° 0 mm 6 mps 759 mmHg 50%
    16:00 +1°C° 0 mm 6 mps 758 mmHg 56%
    17:00 0°C° 0 mm 5 mps 758 mmHg 62%
    18:00 -1°C° 0 mm 5 mps 757 mmHg 68%
    19:00 -1°C° 0 mm 5 mps 757 mmHg 70%
    20:00 -2°C° 0 mm 6 mps 756 mmHg 72%
    21:00 -2°C° 0 mm 7 mps 756 mmHg 74%
    22:00 -3°C° 0 mm 7 mps 755 mmHg 75%
    23:00 -3°C° 0 mm 7 mps 755 mmHg 76%

    26 February, Tuesday

    Time Temperature Precipitation Wind Pressure Humidity
    00:00 -3°C° 0 mm 7 mps 754 mmHg 77%
    01:00 -4°C° 0 mm 8 mps 753 mmHg 77%
    02:00 -4°C° 0 mm 8 mps 753 mmHg 78%
    03:00 -4°C° 0 mm 9 mps 752 mmHg 78%
    04:00 -4°C° 0.2 mm 9 mps 751 mmHg 78%
    05:00 -3°C° 0.2 mm 10 mps 750 mmHg 78%
    06:00 -3°C° 0.2 mm 10 mps 750 mmHg 78%
    07:00 -3°C° 0.3 mm 10 mps 750 mmHg 79%
    08:00 -3°C° 0.3 mm 10 mps 749 mmHg 79%
    09:00 -3°C° 0.3 mm 9 mps 749 mmHg 80%
    10:00 -1°C° 0.1 mm 9 mps 749 mmHg 75%
    11:00 -1°C° 0.1 mm 9 mps 748 mmHg 70%
    12:00 0°C° 0.1 mm 9 mps 748 mmHg 65%
    13:00 0°C° 0.1 mm 9 mps 747 mmHg 65%
    14:00 0°C° 0.1 mm 9 mps 747 mmHg 65%
    15:00 0°C° 0.1 mm 9 mps 746 mmHg 65%
    16:00 0°C° 0.1 mm 8 mps 746 mmHg 68%
    17:00 -1°C° 0.1 mm 7 mps 746 mmHg 71%
    18:00 -1°C° 0.1 mm 6 mps 746 mmHg 75%
    19:00 -2°C° 0 mm 6 mps 745 mmHg 77%
    20:00 -2°C° 0 mm 6 mps 745 mmHg 80%
    21:00 -3°C° 0 mm 6 mps 745 mmHg 82%
    22:00 -3°C° 0 mm 6 mps 744 mmHg 83%
    23:00 -3°C° 0 mm 6 mps 744 mmHg 83%

    27 February, Wednesday

    Time Temperature Precipitation Wind Pressure Humidity
    00:00 -3°C° 0 mm 6 mps 744 mmHg 83%
    01:00 -2°C° 0.1 mm 5 mps 743 mmHg 85%
    02:00 -2°C° 0.1 mm 5 mps 743 mmHg 86%
    03:00 -2°C° 0.1 mm 4 mps 742 mmHg 88%
    04:00 -1°C° 0.1 mm 3 mps 742 mmHg 90%
    05:00 -1°C° 0.1 mm 3 mps 742 mmHg 91%
    06:00 -1°C° 0.1 mm 2 mps 742 mmHg 93%
    07:00 -1°C° 0.2 mm 2 mps 742 mmHg 92%
    08:00 +2°C° 0.2 mm 1 mps 742 mmHg 91%
    09:00 +2°C° 0.2 mm 1 mps 742 mmHg 90%
    10:00 +3°C° 0.2 mm 1 mps 742 mmHg 88%
    11:00 +3°C° 0.2 mm 1 mps 742 mmHg 86%
    12:00 +4°C° 0.2 mm 1 mps 742 mmHg 84%
    13:00 +4°C° 0.1 mm 1 mps 742 mmHg 82%
    14:00 +4°C° 0.1 mm 1 mps 742 mmHg 80%
    15:00 +5°C° 0.1 mm 1 mps 742 mmHg 78%
    16:00 +3°C° 0 mm 2 mps 743 mmHg 81%
    17:00 +2°C° 0 mm 2 mps 743 mmHg 84%
    18:00 +1°C° 0 mm 3 mps 743 mmHg 87%
    19:00 +1°C° 0 mm 3 mps 744 mmHg 87%
    20:00 0°C° 0 mm 3 mps 745 mmHg 86%
    21:00 0°C° 0 mm 3 mps 745 mmHg 86%
    22:00 -1°C° 0 mm 3 mps 746 mmHg 87%
    23:00 -2°C° 0 mm 2 mps 746 mmHg 89%

    28 February, Thursday

    Time Temperature Precipitation Wind Pressure Humidity
    00:00 -2°C° 0 mm 2 mps 746 mmHg 91%
    01:00 -3°C° 0 mm 2 mps 747 mmHg 92%
    02:00 -3°C° 0 mm 2 mps 747 mmHg 92%
    03:00 -3°C° 0 mm 2 mps 747 mmHg 93%
    04:00 -3°C° 0 mm 2 mps 747 mmHg 92%
    05:00 -4°C° 0 mm 3 mps 748 mmHg 91%
    06:00 -4°C° 0 mm 3 mps 748 mmHg 90%
    07:00 -3°C° 0 mm 4 mps 748 mmHg 87%
    08:00 -3°C° 0 mm 4 mps 748 mmHg 84%
    09:00 -2°C° 0 mm 5 mps 749 mmHg 81%
    10:00 -1°C° 0 mm 5 mps 748 mmHg 79%
    11:00 -2°C° 0 mm 6 mps 748 mmHg 76%
    12:00 -1°C° 0 mm 6 mps 747 mmHg 73%
    13:00 -1°C° 0 mm 7 mps 747 mmHg 72%
    14:00 -1°C° 0 mm 7 mps 746 mmHg 70%
    15:00 0°C° 0 mm 7 mps 746 mmHg 68%
    16:00 -1°C° 0 mm 7 mps 746 mmHg 71%
    17:00 -1°C° 0 mm 7 mps 746 mmHg 73%
    18:00 -2°C° 0 mm 7 mps 746 mmHg 75%
    19:00 -2°C° 0 mm 8 mps 746 mmHg 75%
    20:00 -2°C° 0 mm 8 mps 745 mmHg 75%
    21:00 -3°C° 0 mm 9 mps 745 mmHg 76%
    22:00 -3°C° 0 mm 9 mps 745 mmHg 75%
    23:00 -2°C° 0 mm 10 mps 744 mmHg 75%
    Show more